Location: Santa Barbara
(34.4500°N, 119.7700°W)
Time: 10:14:59
(UTC-07:00)

ISS - Visible Passes

Search period start: 20 October 2019 00:00
Search period end: 30 October 2019 00:00
Orbit: 411 x 421 km, 51.6° (Epoch: 20 October)

Date Brightness Start Highest point End Pass type
(mag) Time Alt. Az. Time Alt. Az. Time Alt. Az.
21 Oct -0.7 06:18:46 10° SSE 06:20:41 15° SE 06:22:38 10° E visible
23 Oct -2.8 06:16:43 10° SSW 06:19:58 48° SE 06:23:14 10° ENE visible
24 Oct -1.6 05:29:49 17° S 05:31:28 24° SE 05:34:17 10° ENE visible
25 Oct -0.3 04:44:14 11° ESE 04:44:14 11° ESE 04:44:40 10° E visible
25 Oct -3.4 06:17:11 18° WSW 06:19:25 47° NW 06:22:41 10° NE visible
26 Oct -3.3 05:31:20 59° NE 05:31:20 59° NE 05:34:09 10° NE visible
27 Oct -0.3 04:45:17 11° ENE 04:45:17 11° ENE 04:45:24 10° ENE visible
27 Oct -2.1 06:18:13 17° NW 06:19:04 18° NNW 06:21:31 10° NNE visible
28 Oct -1.6 05:31:59 19° NNE 05:31:59 19° NNE 05:33:16 10° NNE visible
